Volver al catálogo

STARLINK-36319

ActivoComunicacionesSSO
NORAD 67970·PAYLOAD·🇺🇸 United States

Lanzado Feb 25, 2026 desde Vandenberg Space Force Base

Loading…

Próximos Pases (próximas 24 horas)

TLE

ActualizadoSource: CelesTrak SupGP

Época: Sep 15, 2026, 03:06 UTC

1 67970C 26038K   26258.12965278 -.00064715  00000+0 -20092-2 0  2588
2 67970  97.2845 266.5305 0001617  89.6309 116.2613 15.33466390    14

Sigue STARLINK-36319 en tiempo real con AllMySat

Download on the App Store